[[{"header":{"parameterUnit":"m.s-1","parameterCategory":1,"la1":30.2991,"la2":30.254,"lo1":-89.0895,"lo2":-89.0444,"dy":0.0017,"dx":0.0017,"nx":28,"ny":28,"refTime":"2024-05-23T03:00:00:Z","depth":0,"parameterNumber":2,"parameterNumberName":"U-component_of_WINDS"},"data":[0,0,0,0,0,0,0,0,0,0,0,0,0,0,0,0,0,0,0,0,0,0,0,0,0,0,0,0,0,0,0,0,0,0,0,0,0,0,0,0,0,0,0,0,0,0,0,0,0,0,0,0,0,0,0,0,0,0,-2.2135,-2.2135,0,-2.2104,-2.2104,-2.2103,-2.2063,-2.2063,-2.2062,-2.2062,-2.203,-2.203,-2.203,0,0,0,0,0,0,0,0,0,0,0,0,0,-2.2162,-2.2162,-2.2135,-2.2135,-2.2134,-2.2104,-2.2104,-2.2103,-2.2064,-2.2063,-2.2062,-2.2061,-2.203,-2.203,-2.203,0,0,0,0,0,0,0,0,0,0,0,0,0,-2.2143,-2.2162,-2.2135,-2.2111,-2.2108,-2.2104,-2.2104,-2.2103,-2.2064,-2.2063,-2.2062,-2.2061,-2.203,-2.203,-2.2029,-2.2047,0,0,-2.2028,-2.2028,0,0,0,0,0,0,0,0,-2.2144,-2.2142,-2.2115,-2.2113,-2.211,-2.2087,-2.2101,-2.2084,-2.2064,-2.2081,-2.2061,-2.206,-2.205,-2.2048,-2.2044,-2.2045,-2.2044,-2.2028,-2.2028,-2.2028,-2.2028,0,0,0,0,0,0,0,-2.2145,-2.2143,-2.2123,-2.2115,-2.2111,-2.2102,-2.2098,-2.2098,-2.2071,-2.2079,-2.2076,-2.2073,-2.2048,-2.2044,-2.2043,-2.2043,-2.2028,-2.2028,-2.2028,-2.2028,-2.2058,-2.2059,0,0,0,0,0,0,-2.215,-2.2144,-2.2124,-2.2122,-2.2125,-2.2102,-2.2098,-2.2095,-2.2071,-2.2066,-2.2074,-2.2071,-2.2045,-2.2043,-2.2042,-2.206,-2.2028,-2.2028,-2.2027,-2.2057,-2.2058,-2.2059,0,0,0,0,0,0,-2.2151,-2.2148,-2.2125,-2.2132,-2.2128,-2.2103,-2.21,-2.2095,-2.2091,-2.2067,-2.2062,-2.2075,-2.2045,-2.2042,-2.2046,-2.2058,-2.2027,-2.2027,-2.2056,-2.2057,-2.2059,-2.2097,0,0,0,0,0,0,-2.2152,-2.2149,-2.2155,-2.2133,-2.2128,-2.2129,-2.2101,-2.2095,-2.209,-2.2087,-2.2066,-2.2062,-2.2044,-2.2047,-2.2045,-2.2057,-2.2027,-2.2054,-2.2056,-2.2058,-2.2094,-2.21,-2.2104,0,0,0,0,0,-2.2153,-2.2167,-2.2155,-2.2153,-2.2135,-2.213,-2.2128,-2.2106,-2.2092,-2.2097,-2.2082,-2.2063,-2.2058,-2.2047,-2.2046,-2.2058,-2.2054,-2.2056,-2.2058,-2.2092,-2.2099,-2.2104,0,0,0,0,0,0,-2.219,-2.2163,-2.215,-2.2157,-2.2146,-2.2123,-2.213,-2.2113,-2.2106,-2.2103,-2.2076,-2.2072,-2.2079,-2.2069,-2.2058,-2.2073,-2.2053,-2.2055,-2.2079,-2.2085,-2.209,-2.2091,-2.2027,0,0,0,0,0,-2.22,-2.2198,-2.2174,-2.2183,-2.2178,-2.2155,-2.2152,-2.2137,-2.2124,-2.2119,-2.2104,-2.2093,-2.2089,-2.2087,-2.2082,-2.2094,-2.2089,-2.2101,-2.2106,-2.211,-2.2112,-2.2118,-2.2123,-2.2067,-2.2067,-2.2067,0,0,-2.2218,-2.2203,-2.2204,-2.219,-2.218,-2.2179,-2.2151,-2.2151,-2.215,-2.2119,-2.2121,-2.2111,-2.2097,-2.2105,-2.2108,-2.2096,-2.2127,-2.2113,-2.2117,-2.2116,-2.2121,-2.2126,-2.2131,-2.2068,-2.2068,-2.2068,0,0,-2.2252,-2.224,-2.2246,-2.2237,-2.2222,-2.2207,-2.2209,-2.2188,-2.218,-2.2182,-2.2159,-2.2158,-2.2152,-2.2143,-2.2137,-2.217,-2.2152,-2.2169,-2.2194,-2.22,-2.2204,-2.2208,-2.2219,-2.2224,-2.2172,-2.2172,-2.2172,0,-2.2277,-2.2274,-2.2251,-2.2253,-2.2248,-2.2221,-2.2227,-2.2219,-2.2203,-2.2201,-2.2189,-2.2181,-2.2169,-2.2175,-2.2183,-2.218,-2.2181,-2.217,-2.2205,-2.2209,-2.2212,-2.2222,-2.2227,-2.2174,-2.2173,-2.2173,-2.2173,0,-2.2305,-2.2304,-2.2311,-2.2296,-2.2292,-2.2296,-2.2275,-2.2274,-2.226,-2.2246,-2.2249,-2.2235,-2.2227,-2.2228,-2.2214,-2.2232,-2.2225,-2.221,-2.2188,-2.222,-2.2229,-2.2233,-2.2177,-2.2176,-2.2175,-2.2175,0,0,-2.2359,-2.2334,-2.2337,-2.233,-2.2312,-2.2311,-2.2315,-2.2307,-2.2306,-2.2297,-2.2299,-2.2296,-2.2281,-2.2276,-2.2261,-2.2266,-2.2293,-2.225,-2.2249,-2.2258,-2.2312,-2.2323,-2.2328,-2.2282,-2.2282,-2.2283,-2.2313,0,-2.2389,-2.2392,-2.2373,-2.2382,-2.238,-2.2356,-2.2359,-2.2349,-2.2337,-2.2335,-2.2322,-2.2319,-2.2301,-2.2298,-2.2302,-2.2288,-2.2303,-2.2286,-2.2283,-2.2283,-2.2286,-2.2332,-2.2343,-2.2372,-2.2316,-2.2317,-2.2317,0,-2.2422,-2.2415,-2.2424,-2.2407,-2.2406,-2.2408,-2.24,-2.2398,-2.2387,-2.2378,-2.2373,-2.2356,-2.2359,-2.234,-2.2344,-2.2333,-2.2331,-2.2324,-2.2325,-2.2322,-2.2301,-2.233,-2.2381,-2.2385,-2.2323,-2.2323,-2.2322,0,-2.246,-2.2453,-2.2457,-2.2452,-2.2433,-2.2436,-2.2428,-2.2415,-2.2412,-2.2406,-2.2403,-2.2398,-2.2394,-2.239,-2.2372,-2.236,-2.2378,-2.2358,-2.2371,-2.2371,-2.2374,-2.2374,-2.2424,-2.2375,-2.2375,-2.2375,-2.2375,0,-2.2494,-2.25,-2.2474,-2.2476,-2.2483,-2.2462,-2.2469,-2.2459,-2.2448,-2.2449,-2.2428,-2.2429,-2.2406,-2.2405,-2.2392,-2.2397,-2.2396,-2.2389,-2.2385,-2.239,-2.239,-2.2387,-2.2384,-2.2376,-2.2376,-2.2376,-2.2376,0,-2.2536,-2.2519,-2.2522,-2.2504,-2.2499,-2.2505,-2.2489,-2.2491,-2.2479,-2.248,-2.2479,-2.246,-2.2458,-2.244,-2.2434,-2.2425,-2.2435,-2.2428,-2.2438,-2.2436,-2.2449,-2.2448,-2.2498,-2.2503,-2.2452,-2.2453,-2.2453,0,-2.2558,-2.2562,-2.2545,-2.2544,-2.2537,-2.2535,-2.2532,-2.2512,-2.251,-2.2498,-2.2502,-2.2498,-2.2493,-2.2491,-2.2477,-2.2472,-2.2464,-2.2482,-2.2463,-2.2468,-2.2463,-2.2463,-2.2463,-2.2485,-2.2486,-2.2487,-2.2487,0,-2.2599,-2.2591,-2.2587,-2.258,-2.2577,-2.2571,-2.2564,-2.2565,-2.2543,-2.2542,-2.2539,-2.2536,-2.253,-2.2526,-2.2519,-2.2512,-2.2496,-2.2494,-2.2496,-2.25,-2.2506,-2.2503,-2.2448,-2.2492,-2.2491,-2.2491,-2.2491,-2.2491,-2.2631,-2.2634,-2.2622,-2.2619,-2.2611,-2.2606,-2.2606,-2.2595,-2.2592,-2.2585,-2.2574,-2.2574,-2.2564,-2.2553,-2.2547,-2.2546,-2.2537,-2.2541,-2.2542,-2.2543,-2.2545,-2.2508,-2.2545,-2.2545,-2.2545,-2.2545,-2.2545,0,-2.267,-2.2662,-2.2659,-2.265,-2.2648,-2.2634,-2.2625,-2.2624,-2.2624,-2.2616,-2.2612,-2.261,-2.2606,-2.2593,-2.2588,-2.2591,-2.2583,-2.259,-2.2589,-2.2587,-2.2554,-2.2552,-2.2596,-2.2596,-2.2596,-2.2596,-2.2596,-2.2596,-2.269,-2.2694,-2.2685,-2.2685,-2.2677,-2.2675,-2.2672,-2.2667,-2.266,-2.2658,-2.2655,-2.2647,-2.2636,-2.2631,-2.2628,-2.2624,-2.2623,-2.2632,-2.2626,-2.2595,-2.259,-2.2585,-2.2583,-2.2632,-2.2633,-2.2659,-2.2659,-2.266]},{"header":{"parameterUnit":"m.s-1","parameterCategory":1,"la1":30.2991,"la2":30.254,"lo1":-89.0895,"lo2":-89.0444,"dy":0.0017,"dx":0.0017,"nx":28,"ny":28,"refTime":"2024-05-23T03:00:00:Z","depth":0,"parameterNumber":3,"parameterNumberName":"V-component_of_WINDS"},"data":[0,0,0,0,0,0,0,0,0,0,0,0,0,0,0,0,0,0,0,0,0,0,0,0,0,0,0,0,0,0,0,0,0,0,0,0,0,0,0,0,0,0,0,0,0,0,0,0,0,0,0,0,0,0,0,0,0,0,4.2697,4.2697,0,4.269,4.269,4.269,4.2696,4.2696,4.2696,4.2696,4.2687,4.2686,4.2686,0,0,0,0,0,0,0,0,0,0,0,0,0,4.2711,4.2711,4.2697,4.2697,4.2696,4.269,4.269,4.269,4.2695,4.2696,4.2696,4.2696,4.2687,4.2686,4.2686,0,0,0,0,0,0,0,0,0,0,0,0,0,4.2705,4.2711,4.2697,4.2698,4.2699,4.269,4.269,4.269,4.2695,4.2696,4.2696,4.2696,4.2687,4.2686,4.2686,4.2675,0,0,4.2684,4.2683,0,0,0,0,0,0,0,0,4.2705,4.2704,4.2698,4.2698,4.2698,4.2694,4.2692,4.2685,4.2695,4.2697,4.2696,4.2697,4.2689,4.2688,4.2686,4.2674,4.2674,4.2684,4.2683,4.2683,4.2683,0,0,0,0,0,0,0,4.2706,4.2705,4.2694,4.2698,4.2698,4.2699,4.2698,4.2691,4.2691,4.2696,4.2697,4.2696,4.2689,4.2687,4.2686,4.2674,4.2684,4.2683,4.2683,4.2682,4.2654,4.2653,0,0,0,0,0,0,4.2706,4.2705,4.2694,4.2694,4.2703,4.2698,4.2698,4.2695,4.2691,4.2691,4.2696,4.2696,4.2688,4.2687,4.2685,4.2673,4.2683,4.2682,4.2682,4.2654,4.2654,4.2653,0,0,0,0,0,0,4.2707,4.2705,4.2695,4.27,4.2698,4.2698,4.2695,4.2695,4.2693,4.269,4.269,4.2694,4.2688,4.2686,4.2678,4.2673,4.2682,4.2681,4.2654,4.2654,4.2653,4.2647,0,0,0,0,0,0,4.2707,4.2705,4.2701,4.27,4.2698,4.2687,4.2694,4.2694,4.2692,4.2692,4.2688,4.2688,4.2688,4.2679,4.2677,4.2672,4.2681,4.2655,4.2654,4.2654,4.2648,4.2647,4.2646,0,0,0,0,0,4.2708,4.2699,4.2701,4.27,4.2693,4.2687,4.2686,4.2687,4.2691,4.2687,4.2686,4.2688,4.2674,4.2678,4.2676,4.267,4.2655,4.2654,4.2654,4.2649,4.2647,4.2646,0,0,0,0,0,0,4.2699,4.2699,4.2701,4.2692,4.269,4.2688,4.2683,4.2685,4.2681,4.2682,4.2682,4.2681,4.2673,4.2671,4.2675,4.266,4.2665,4.2664,4.2662,4.266,4.2659,4.266,4.268,0,0,0,0,0,4.2696,4.2692,4.2692,4.2684,4.2683,4.2683,4.268,4.2682,4.2679,4.2678,4.2676,4.2672,4.2667,4.2664,4.2658,4.2648,4.2647,4.2643,4.2642,4.2641,4.264,4.2635,4.2634,4.2651,4.2651,4.2651,0,0,4.269,4.269,4.2687,4.2682,4.268,4.2676,4.2682,4.2676,4.2673,4.2676,4.2669,4.2667,4.2663,4.2654,4.265,4.2652,4.2635,4.264,4.2639,4.2639,4.2634,4.2633,4.2631,4.265,4.265,4.265,0,0,4.2677,4.2676,4.267,4.2668,4.2666,4.2667,4.2666,4.2664,4.2664,4.2656,4.2659,4.2654,4.2645,4.2643,4.264,4.2628,4.263,4.2626,4.262,4.2615,4.2614,4.2613,4.2609,4.2608,4.2625,4.2625,4.2625,0,4.2669,4.2663,4.2666,4.2661,4.2659,4.2663,4.2657,4.2655,4.2651,4.265,4.2652,4.2642,4.264,4.2631,4.2628,4.2625,4.2624,4.2626,4.2614,4.2613,4.2612,4.2608,4.2607,4.2625,4.2625,4.2625,4.2625,0,4.2654,4.265,4.2645,4.2643,4.264,4.2634,4.2636,4.2633,4.2635,4.2635,4.2628,4.2625,4.2621,4.2619,4.2619,4.261,4.2611,4.2614,4.2619,4.261,4.2607,4.2605,4.2624,4.2624,4.2624,4.2625,0,0,4.2634,4.2635,4.2633,4.2633,4.2632,4.2628,4.2623,4.2619,4.2617,4.2614,4.261,4.2603,4.2606,4.2603,4.2604,4.26,4.2592,4.2604,4.2604,4.2602,4.2582,4.258,4.2578,4.2593,4.2593,4.2593,4.2582,0,4.2622,4.2613,4.2616,4.2608,4.2604,4.2609,4.2604,4.2603,4.2603,4.26,4.26,4.2595,4.2599,4.2598,4.2594,4.2593,4.2588,4.2594,4.2589,4.2589,4.259,4.2576,4.2574,4.2564,4.2581,4.2581,4.258,0,4.2605,4.2604,4.2595,4.2596,4.2595,4.259,4.2588,4.2585,4.2584,4.2584,4.2582,4.2584,4.2579,4.2584,4.2577,4.2581,4.2579,4.2579,4.2579,4.2578,4.2584,4.2576,4.2561,4.256,4.2578,4.2578,4.2579,0,4.2593,4.2588,4.2583,4.2582,4.2583,4.258,4.258,4.2579,4.2577,4.2575,4.2574,4.2571,4.2569,4.2567,4.2568,4.2571,4.2561,4.2566,4.2561,4.2561,4.2558,4.2558,4.2543,4.2556,4.2556,4.2556,4.2556,0,4.2579,4.2573,4.2578,4.2574,4.2569,4.2572,4.2566,4.2566,4.2566,4.2563,4.2566,4.2563,4.2565,4.2561,4.2562,4.2557,4.2555,4.2556,4.2556,4.2556,4.2556,4.2554,4.2555,4.2556,4.2556,4.2556,4.2556,0,4.2563,4.2566,4.2561,4.2562,4.2563,4.2558,4.2559,4.2556,4.2558,4.2553,4.2552,4.2554,4.2551,4.2552,4.2548,4.2548,4.2541,4.2542,4.2542,4.2542,4.2538,4.2538,4.2521,4.252,4.2534,4.2534,4.2534,0,4.2554,4.255,4.2552,4.2551,4.2551,4.2548,4.2547,4.255,4.2549,4.2548,4.2545,4.2542,4.254,4.2534,4.2535,4.2532,4.2533,4.2527,4.2532,4.2533,4.2533,4.2534,4.2534,4.2526,4.2526,4.2526,4.2526,0,4.2538,4.254,4.2538,4.2537,4.2536,4.2535,4.2535,4.2533,4.2536,4.2534,4.2532,4.253,4.2527,4.2524,4.2522,4.2522,4.2524,4.2524,4.2523,4.2523,4.2523,4.2523,4.254,4.2524,4.2525,4.2525,4.2525,4.2525,4.2525,4.2523,4.2524,4.2522,4.2523,4.2523,4.252,4.2522,4.252,4.2518,4.252,4.2517,4.2517,4.2514,4.2514,4.2511,4.2513,4.2511,4.2511,4.251,4.251,4.2523,4.251,4.251,4.2511,4.2511,4.2511,0,4.251,4.2511,4.251,4.251,4.2508,4.2512,4.2512,4.2511,4.2508,4.2508,4.2507,4.2504,4.2502,4.2503,4.2501,4.2499,4.25,4.2498,4.2498,4.2498,4.2508,4.2509,4.2497,4.2497,4.2497,4.2497,4.2497,4.2497,4.2501,4.2498,4.25,4.2496,4.2497,4.2495,4.2495,4.2495,4.2495,4.2492,4.2491,4.2492,4.2492,4.2491,4.2489,4.2489,4.2489,4.2486,4.2487,4.2496,4.2497,4.2499,4.25,4.2486,4.2486,4.2478,4.2478,4.2478]}]]